Private Wetterstation Wechselburg
Wetterdaten: Donnerstag, 24.12.2020
Datum Zeit Temp. +2m Bodentemp. Temp.+5cm Temp. Wind Windchill X Diff Temp. Feuchte +2m Feuchte +5cm Luftdruck Regen Wind Richtung Richtung Sonnenschein Taupunkt Windchill Windben
24.12.2020 00:00 10,5 C 9,9 C 10,1 C 11,0 C 11,0 C 0,5 C 88 % 93 % 1007,9 hPa 0,0 l/m 4,2 km/h (1 Bft) O-NO 67 0 min 8,6 C 11,0 C 8,7 km/h (2 Bft)
24.12.2020 00:05 10,5 C 9,9 C 10,1 C 11,1 C 11,1 C 0,6 C 88 % 93 % 1007,9 hPa 0,0 l/m 4,5 km/h (1 Bft) S-SW 202 0 min 8,6 C 11,1 C 4,0 km/h (1 Bft)
24.12.2020 00:11 10,5 C 9,9 C 10,1 C 11,2 C 11,2 C 0,7 C 88 % 93 % 1008,0 hPa 0,0 l/m 4,7 km/h (1 Bft) N 0 0 min 8,6 C 11,2 C 6,8 km/h (2 Bft)
24.12.2020 00:29 10,8 C 9,9 C 10,0 C 10,8 C 10,8 C 0,0 C 88 % 93 % 1008,1 hPa 0,0 l/m 7,6 km/h (2 Bft) S-SW 202 0 min 8,9 C 10,8 C 13,2 km/h (3 Bft)
24.12.2020 00:37 11,0 C 9,8 C 9,9 C 10,9 C 10,8 C 0,0 C 88 % 93 % 1008,1 hPa 0,0 l/m 7,9 km/h (2 Bft) W-SW 247 0 min 9,1 C 10,8 C 14,6 km/h (3 Bft)
24.12.2020 00:45 11,2 C 9,8 C 9,9 C 11,1 C 10,8 C 0,0 C 87 % 93 % 1008,1 hPa 0,0 l/m 7,6 km/h (2 Bft) SW 225 0 min 9,1 C 10,8 C 12,2 km/h (2 Bft)
24.12.2020 00:50 11,3 C 9,8 C 9,9 C 11,2 C 10,9 C 0,0 C 87 % 93 % 1008,9 hPa 0,0 l/m 7,4 km/h (2 Bft) W 270 0 min 9,2 C 10,9 C 10,9 km/h (2 Bft)
24.12.2020 00:55 11,2 C 9,8 C 9,9 C 11,1 C 10,9 C 0,0 C 86 % 93 % 1008,9 hPa 0,0 l/m 7,2 km/h (2 Bft) W-SW 247 0 min 8,9 C 10,9 C 9,0 km/h (2 Bft)
24.12.2020 01:00 11,2 C 9,8 C 9,9 C 11,1 C 10,9 C 0,0 C 86 % 93 % 1008,9 hPa 0,0 l/m 6,9 km/h (2 Bft) O-NO 67 0 min 8,9 C 10,9 C 5,6 km/h (1 Bft)
24.12.2020 01:05 11,2 C 9,8 C 9,9 C 11,0 C 10,7 C 0,0 C 86 % 93 % 1008,9 hPa 0,0 l/m 7,4 km/h (2 Bft) O-SO 112 0 min 8,9 C 10,7 C 20,9 km/h (4 Bft)
24.12.2020 01:10 11,3 C 9,8 C 9,9 C 11,2 C 11,0 C 0,0 C 86 % 93 % 1007,8 hPa 0,0 l/m 6,3 km/h (2 Bft) O-NO 67 0 min 9,0 C 11,0 C 8,4 km/h (2 Bft)
24.12.2020 01:15 11,3 C 9,8 C 9,9 C 11,3 C 11,3 C 0,0 C 86 % 93 % 1007,8 hPa 0,0 l/m 5,1 km/h (1 Bft) N-NW 337 0 min 9,0 C 11,3 C 5,1 km/h (1 Bft)
24.12.2020 01:20 11,2 C 9,8 C 10,0 C 11,2 C 11,2 C 0,0 C 86 % 93 % 1007,8 hPa 0,0 l/m 5,0 km/h (1 Bft) S 180 0 min 8,9 C 11,2 C 6,8 km/h (2 Bft)
24.12.2020 01:25 11,1 C 9,8 C 10,0 C 11,3 C 11,3 C 0,2 C 86 % 93 % 1007,8 hPa 0,0 l/m 4,5 km/h (1 Bft) S-SO 157 0 min 8,8 C 11,3 C 5,3 km/h (1 Bft)
24.12.2020 01:30 11,1 C 9,8 C 10,0 C 11,3 C 11,3 C 0,2 C 86 % 93 % 1008,3 hPa 0,0 l/m 4,3 km/h (1 Bft) S-SO 157 0 min 8,8 C 11,3 C 6,9 km/h (2 Bft)
24.12.2020 01:35 11,1 C 9,8 C 10,1 C 11,2 C 11,2 C 0,1 C 86 % 93 % 1008,3 hPa 0,0 l/m 4,0 km/h (1 Bft) S-SO 157 0 min 8,8 C 11,2 C 3,5 km/h (1 Bft)
24.12.2020 01:40 11,1 C 9,8 C 10,1 C 11,2 C 11,2 C 0,1 C 86 % 93 % 1008,3 hPa 0,0 l/m 4,5 km/h (1 Bft) S-SO 157 0 min 8,8 C 11,2 C 4,3 km/h (1 Bft)
24.12.2020 01:45 11,1 C 9,8 C 10,0 C 11,1 C 11,1 C 0,0 C 86 % 93 % 1008,3 hPa 0,0 l/m 4,2 km/h (1 Bft) NW 315 0 min 8,8 C 11,1 C 6,9 km/h (2 Bft)
24.12.2020 01:50 11,0 C 9,8 C 9,9 C 11,1 C 11,1 C 0,1 C 86 % 93 % 1007,5 hPa 0,0 l/m 4,0 km/h (1 Bft) S-SO 157 0 min 8,7 C 11,1 C 9,0 km/h (2 Bft)
24.12.2020 01:55 10,9 C 9,8 C 10,0 C 11,1 C 11,1 C 0,2 C 86 % 93 % 1007,5 hPa 0,0 l/m 4,0 km/h (1 Bft) SO 135 0 min 8,7 C 11,1 C 3,9 km/h (1 Bft)
24.12.2020 02:00 10,9 C 9,8 C 10,0 C 11,1 C 11,1 C 0,2 C 86 % 93 % 1007,5 hPa 0,0 l/m 4,3 km/h (1 Bft) SW 225 0 min 8,7 C 11,1 C 7,2 km/h (2 Bft)
24.12.2020 02:05 10,9 C 9,9 C 10,0 C 11,1 C 11,1 C 0,2 C 86 % 93 % 1007,5 hPa 0,0 l/m 4,7 km/h (1 Bft) S 180 0 min 8,7 C 11,1 C 11,6 km/h (2 Bft)
24.12.2020 02:11 11,0 C 9,9 C 10,0 C 11,0 C 10,9 C 0,0 C 85 % 93 % 1007,8 hPa 0,0 l/m 6,0 km/h (2 Bft) N 0 0 min 8,6 C 10,9 C 8,2 km/h (2 Bft)
24.12.2020 02:26 10,9 C 9,9 C 9,9 C 11,0 C 11,0 C 0,1 C 85 % 93 % 1007,8 hPa 0,0 l/m 3,7 km/h (1 Bft) SO 135 0 min 8,5 C 11,0 C 4,8 km/h (1 Bft)
24.12.2020 02:27 10,9 C 9,9 C 9,9 C 11,0 C 11,0 C 0,1 C 85 % 93 % 1007,8 hPa 0,0 l/m 3,7 km/h (1 Bft) SO 135 0 min 8,5 C 11,0 C 4,8 km/h (1 Bft)
24.12.2020 02:38 10,8 C 9,8 C 9,9 C 10,8 C 10,7 C 0,0 C 85 % 93 % 1007,2 hPa 0,0 l/m 4,7 km/h (1 Bft) N-NW 337 0 min 8,4 C 10,7 C 5,6 km/h (1 Bft)
24.12.2020 02:39 10,8 C 9,8 C 9,9 C 10,8 C 10,7 C 0,0 C 85 % 93 % 1007,2 hPa 0,0 l/m 4,7 km/h (1 Bft) N-NW 337 0 min 8,4 C 10,7 C 5,6 km/h (1 Bft)
24.12.2020 02:45 10,8 C 9,8 C 9,9 C 10,7 C 10,6 C 0,0 C 85 % 92 % 1007,2 hPa 0,0 l/m 5,0 km/h (1 Bft) O-SO 112 0 min 8,4 C 10,6 C 7,4 km/h (2 Bft)
24.12.2020 02:50 10,7 C 9,8 C 9,9 C 10,7 C 10,7 C 0,0 C 85 % 92 % 1007,4 hPa 0,0 l/m 4,8 km/h (1 Bft) N-NW 337 0 min 8,3 C 10,7 C 5,8 km/h (2 Bft)
24.12.2020 02:55 10,7 C 9,8 C 9,9 C 10,7 C 10,6 C 0,0 C 85 % 92 % 1007,4 hPa 0,0 l/m 5,0 km/h (1 Bft) O 90 0 min 8,3 C 10,6 C 5,6 km/h (1 Bft)
24.12.2020 03:00 10,7 C 9,8 C 9,9 C 10,7 C 10,6 C 0,0 C 85 % 92 % 1007,4 hPa 0,0 l/m 5,8 km/h (2 Bft) O-SO 112 0 min 8,3 C 10,6 C 8,5 km/h (2 Bft)
24.12.2020 03:05 10,7 C 9,8 C 9,9 C 10,7 C 10,6 C 0,0 C 85 % 92 % 1007,4 hPa 0,0 l/m 5,6 km/h (1 Bft) O-NO 67 0 min 8,3 C 10,6 C 3,9 km/h (1 Bft)
24.12.2020 03:10 10,7 C 9,8 C 9,9 C 10,6 C 10,4 C 0,0 C 85 % 92 % 1007,5 hPa 0,0 l/m 6,1 km/h (2 Bft) O-NO 67 0 min 8,3 C 10,4 C 11,1 km/h (2 Bft)
24.12.2020 03:15 10,7 C 9,8 C 9,9 C 10,7 C 10,7 C 0,0 C 85 % 92 % 1007,5 hPa 0,0 l/m 5,3 km/h (1 Bft) S-SW 202 0 min 8,3 C 10,7 C 5,8 km/h (2 Bft)
24.12.2020 03:20 10,7 C 9,8 C 9,9 C 10,7 C 10,6 C 0,0 C 85 % 92 % 1007,5 hPa 0,0 l/m 5,0 km/h (1 Bft) W-SW 247 0 min 8,3 C 10,6 C 6,8 km/h (2 Bft)
24.12.2020 03:25 10,7 C 9,8 C 9,9 C 10,8 C 10,8 C 0,1 C 85 % 92 % 1007,5 hPa 0,0 l/m 4,5 km/h (1 Bft) O-NO 67 0 min 8,3 C 10,8 C 4,0 km/h (1 Bft)
24.12.2020 03:30 10,7 C 9,7 C 9,9 C 10,7 C 10,6 C 0,0 C 85 % 92 % 1007,1 hPa 0,0 l/m 5,1 km/h (1 Bft) N-NW 337 0 min 8,3 C 10,6 C 6,9 km/h (2 Bft)
24.12.2020 03:35 10,8 C 9,7 C 9,9 C 10,7 C 10,6 C 0,0 C 85 % 92 % 1007,1 hPa 0,0 l/m 5,8 km/h (2 Bft) S-SO 157 0 min 8,4 C 10,6 C 10,0 km/h (2 Bft)
24.12.2020 03:40 10,8 C 9,7 C 9,9 C 10,7 C 10,5 C 0,0 C 84 % 92 % 1007,1 hPa 0,0 l/m 6,0 km/h (2 Bft) S-SO 157 0 min 8,2 C 10,5 C 5,8 km/h (2 Bft)
24.12.2020 03:45 10,8 C 9,7 C 9,9 C 10,7 C 10,6 C 0,0 C 84 % 92 % 1007,1 hPa 0,0 l/m 5,1 km/h (1 Bft) S-SO 157 0 min 8,2 C 10,6 C 8,4 km/h (2 Bft)
24.12.2020 03:50 10,8 C 9,7 C 9,9 C 10,8 C 10,7 C 0,0 C 84 % 92 % 1007,3 hPa 0,0 l/m 4,8 km/h (1 Bft) NO 45 0 min 8,2 C 10,7 C 4,3 km/h (1 Bft)
24.12.2020 03:55 10,8 C 9,7 C 9,9 C 10,8 C 10,7 C 0,0 C 84 % 91 % 1007,3 hPa 0,0 l/m 4,8 km/h (1 Bft) O-SO 112 0 min 8,2 C 10,7 C 3,9 km/h (1 Bft)
24.12.2020 04:00 10,8 C 9,7 C 9,8 C 10,8 C 10,7 C 0,0 C 84 % 92 % 1007,3 hPa 0,0 l/m 3,7 km/h (1 Bft) N-NO 22 0 min 8,2 C 10,7 C 2,6 km/h (1 Bft)
24.12.2020 04:05 10,7 C 9,7 C 9,8 C 10,7 C 10,7 C 0,0 C 84 % 92 % 1007,3 hPa 0,0 l/m 3,9 km/h (1 Bft) W 270 0 min 8,1 C 10,7 C 4,3 km/h (1 Bft)
24.12.2020 04:11 10,7 C 9,7 C 9,8 C 10,7 C 10,7 C 0,0 C 84 % 92 % 1006,8 hPa 0,0 l/m 4,0 km/h (1 Bft) N 0 0 min 8,1 C 10,7 C 6,1 km/h (2 Bft)
24.12.2020 04:26 10,8 C 9,6 C 9,8 C 10,8 C 10,7 C 0,0 C 83 % 91 % 1006,8 hPa 0,0 l/m 4,2 km/h (1 Bft) S 180 0 min 8,0 C 10,7 C 6,3 km/h (2 Bft)
24.12.2020 04:38 10,8 C 9,6 C 9,9 C 10,7 C 10,6 C 0,0 C 83 % 90 % 1006,8 hPa 0,0 l/m 5,1 km/h (1 Bft) S 180 0 min 8,0 C 10,6 C 5,8 km/h (2 Bft)
24.12.2020 04:40 10,8 C 9,6 C 9,9 C 10,7 C 10,4 C 0,0 C 83 % 90 % 1006,8 hPa 0,0 l/m 5,6 km/h (1 Bft) SW 225 0 min 8,0 C 10,4 C 13,4 km/h (3 Bft)
24.12.2020 04:45 10,8 C 9,5 C 9,9 C 10,6 C 10,3 C 0,0 C 83 % 90 % 1006,8 hPa 0,0 l/m 6,0 km/h (2 Bft) S-SW 202 0 min 8,0 C 10,3 C 11,6 km/h (2 Bft)
24.12.2020 04:50 10,8 C 9,5 C 9,9 C 10,7 C 10,4 C 0,0 C 83 % 90 % 1006,9 hPa 0,0 l/m 5,8 km/h (2 Bft) W-NW 292 0 min 8,0 C 10,4 C 6,6 km/h (2 Bft)
24.12.2020 04:55 10,9 C 9,5 C 9,9 C 10,7 C 10,4 C 0,0 C 83 % 89 % 1006,9 hPa 0,0 l/m 5,5 km/h (1 Bft) W 270 0 min 8,1 C 10,4 C 5,8 km/h (2 Bft)
24.12.2020 05:00 10,9 C 9,5 C 9,8 C 10,8 C 10,6 C 0,0 C 82 % 90 % 1006,9 hPa 0,0 l/m 5,0 km/h (1 Bft) W 270 0 min 7,9 C 10,6 C 6,0 km/h (2 Bft)
24.12.2020 05:05 10,7 C 9,5 C 9,7 C 10,6 C 10,5 C 0,0 C 82 % 89 % 1006,9 hPa 0,0 l/m 4,2 km/h (1 Bft) W-NW 292 0 min 7,8 C 10,5 C 8,2 km/h (2 Bft)
24.12.2020 05:10 10,7 C 9,5 C 9,7 C 10,6 C 10,5 C 0,0 C 82 % 89 % 1006,8 hPa 0,0 l/m 4,2 km/h (1 Bft) NO 45 0 min 7,8 C 10,5 C 4,2 km/h (1 Bft)
24.12.2020 05:15 10,7 C 9,5 C 9,8 C 10,6 C 10,5 C 0,0 C 81 % 89 % 1006,8 hPa 0,0 l/m 4,8 km/h (1 Bft) S-SO 157 0 min 7,6 C 10,5 C 9,5 km/h (2 Bft)
24.12.2020 05:20 10,7 C 9,5 C 9,8 C 10,6 C 10,4 C 0,0 C 81 % 88 % 1006,8 hPa 0,0 l/m 5,6 km/h (1 Bft) S-SW 202 0 min 7,6 C 10,4 C 4,8 km/h (1 Bft)
24.12.2020 05:25 10,7 C 9,5 C 9,6 C 10,5 C 10,2 C 0,0 C 81 % 89 % 1006,8 hPa 0,0 l/m 5,5 km/h (1 Bft) SW 225 0 min 7,6 C 10,2 C 12,2 km/h (2 Bft)
24.12.2020 05:30 10,6 C 9,5 C 9,5 C 10,5 C 10,3 C 0,0 C 81 % 89 % 1006,7 hPa 0,0 l/m 5,1 km/h (1 Bft) S-SW 202 0 min 7,5 C 10,3 C 4,8 km/h (1 Bft)
24.12.2020 05:35 10,7 C 9,5 C 9,5 C 10,5 C 10,1 C 0,0 C 81 % 89 % 1006,7 hPa 0,0 l/m 6,0 km/h (2 Bft) O-SO 112 0 min 7,6 C 10,1 C 2,9 km/h (1 Bft)
24.12.2020 05:40 10,7 C 9,5 C 9,5 C 10,6 C 10,3 C 0,0 C 81 % 89 % 1006,7 hPa 0,0 l/m 5,1 km/h (1 Bft) SW 225 0 min 7,6 C 10,3 C 13,4 km/h (3 Bft)
24.12.2020 05:45 10,5 C 9,5 C 9,5 C 10,4 C 10,1 C 0,0 C 81 % 89 % 1006,7 hPa 0,0 l/m 5,0 km/h (1 Bft) S-SW 202 0 min 7,4 C 10,1 C 4,8 km/h (1 Bft)
24.12.2020 05:50 10,5 C 9,5 C 9,3 C 10,3 C 9,9 C 0,0 C 81 % 89 % 1006,4 hPa 0,0 l/m 5,3 km/h (1 Bft) W 270 0 min 7,4 C 9,6 C 7,9 km/h (2 Bft)
24.12.2020 05:55 10,4 C 9,4 C 9,2 C 10,0 C 9,2 C 0,0 C 82 % 89 % 1006,4 hPa 0,0 l/m 7,1 km/h (2 Bft) O-NO 67 0 min 7,5 C 8,3 C 16,1 km/h (3 Bft)
24.12.2020 06:00 10,4 C 9,4 C 9,2 C 10,1 C 8,9 C 0,0 C 81 % 89 % 1006,4 hPa 0,0 l/m 8,4 km/h (2 Bft) O 90 0 min 7,3 C 7,6 C 11,3 km/h (2 Bft)
24.12.2020 06:05 10,3 C 9,4 C 9,1 C 10,0 C 9,0 C 0,0 C 81 % 90 % 1006,4 hPa 0,0 l/m 8,7 km/h (2 Bft) SW 225 0 min 7,2 C 7,7 C 8,9 km/h (2 Bft)
24.12.2020 06:11 10,2 C 9,4 C 9,0 C 9,9 C 8,9 C 0,0 C 81 % 90 % 1006,9 hPa 0,0 l/m 8,2 km/h (2 Bft) N 0 0 min 7,1 C 7,7 C 12,1 km/h (2 Bft)
24.12.2020 06:27 10,0 C 9,3 C 8,8 C 9,7 C 8,6 C 0,0 C 81 % 90 % 1006,9 hPa 0,0 l/m 9,7 km/h (2 Bft) S 180 0 min 6,9 C 7,0 C 14,2 km/h (3 Bft)
24.12.2020 06:40 9,7 C 9,2 C 8,6 C 9,4 C 7,8 C 0,0 C 73 % 83 % 1007,2 hPa 0,0 l/m 13,2 km/h (3 Bft) S-SW 202 0 min 5,1 C 5,5 C 19,6 km/h (3 Bft)
24.12.2020 06:45 9,6 C 9,2 C 8,4 C 9,1 C 7,0 C 0,0 C 71 % 82 % 1007,2 hPa 0,0 l/m 16,1 km/h (3 Bft) W-SW 247 0 min 4,6 C 4,1 C 32,3 km/h (5 Bft)
24.12.2020 06:50 9,3 C 9,2 C 8,2 C 8,7 C 6,4 C 0,0 C 71 % 81 % 1007,3 hPa 0,0 l/m 17,9 km/h (3 Bft) S-SW 202 0 min 4,3 C 3,1 C 22,9 km/h (4 Bft)
24.12.2020 06:55 9,1 C 9,2 C 8,0 C 8,4 C 6,2 C 0,0 C 71 % 82 % 1007,3 hPa 0,0 l/m 16,7 km/h (3 Bft) S 180 0 min 4,1 C 3,0 C 23,8 km/h (4 Bft)
24.12.2020 07:00 8,9 C 9,2 C 7,9 C 8,3 C 6,4 C 0,0 C 71 % 81 % 1007,3 hPa 0,0 l/m 14,5 km/h (3 Bft) S 180 0 min 3,9 C 3,5 C 13,2 km/h (3 Bft)
24.12.2020 07:05 8,8 C 9,1 C 7,7 C 8,2 C 6,3 C 0,0 C 72 % 82 % 1007,3 hPa 0,0 l/m 13,7 km/h (3 Bft) SW 225 0 min 4,0 C 3,5 C 17,1 km/h (3 Bft)
24.12.2020 07:10 8,8 C 9,1 C 7,6 C 8,0 C 6,3 C 0,0 C 72 % 82 % 1007,4 hPa 0,0 l/m 13,2 km/h (3 Bft) S-SW 202 0 min 4,0 C 3,6 C 12,6 km/h (3 Bft)
24.12.2020 07:15 8,7 C 9,1 C 7,4 C 8,1 C 6,0 C 0,0 C 73 % 82 % 1007,4 hPa 0,0 l/m 13,4 km/h (3 Bft) W-SW 247 0 min 4,1 C 3,2 C 12,9 km/h (3 Bft)
24.12.2020 07:20 8,5 C 9,1 C 7,3 C 7,9 C 6,1 C 0,0 C 73 % 82 % 1007,4 hPa 0,0 l/m 12,6 km/h (3 Bft) S 180 0 min 3,9 C 3,5 C 11,3 km/h (2 Bft)
24.12.2020 07:25 8,4 C 9,1 C 7,1 C 7,8 C 5,9 C 0,0 C 74 % 83 % 1007,4 hPa 0,0 l/m 11,7 km/h (2 Bft) S 180 0 min 4,0 C 3,4 C 18,7 km/h (3 Bft)
24.12.2020 07:30 8,3 C 9,1 C 7,1 C 7,5 C 5,9 C 0,0 C 74 % 83 % 1007,2 hPa 0,0 l/m 11,9 km/h (2 Bft) N 360 0 min 3,9 C 3,4 C 12,4 km/h (3 Bft)
24.12.2020 07:35 8,2 C 9,1 C 7,0 C 7,6 C 5,7 C 0,0 C 75 % 83 % 1007,2 hPa 0,0 l/m 11,4 km/h (2 Bft) W-SW 247 0 min 4,0 C 3,2 C 7,9 km/h (2 Bft)
24.12.2020 07:40 8,0 C 9,1 C 6,9 C 7,5 C 5,8 C 0,0 C 75 % 83 % 1007,2 hPa 0,0 l/m 10,6 km/h (2 Bft) O 90 0 min 3,8 C 3,5 C 15,8 km/h (3 Bft)
24.12.2020 07:45 7,9 C 9,1 C 6,8 C 7,4 C 5,6 C 0,0 C 75 % 83 % 1007,2 hPa 0,0 l/m 10,3 km/h (2 Bft) S 180 0 min 3,7 C 3,3 C 16,3 km/h (3 Bft)
24.12.2020 07:50 7,9 C 9,0 C 6,7 C 7,3 C 5,4 C 0,0 C 75 % 83 % 1007,6 hPa 0,0 l/m 10,9 km/h (2 Bft) SW 225 0 min 3,7 C 3,0 C 13,8 km/h (3 Bft)
24.12.2020 07:55 7,9 C 9,0 C 6,7 C 7,3 C 5,3 C 0,0 C 75 % 83 % 1007,6 hPa 0,0 l/m 11,6 km/h (2 Bft) W-SW 247 0 min 3,7 C 2,7 C 16,4 km/h (3 Bft)
24.12.2020 08:00 7,7 C 9,0 C 6,5 C 6,9 C 5,3 C 0,0 C 75 % 83 % 1007,6 hPa 0,0 l/m 10,9 km/h (2 Bft) S-SW 202 0 min 3,6 C 2,8 C 9,0 km/h (2 Bft)
24.12.2020 08:05 7,6 C 9,0 C 6,5 C 7,1 C 5,5 C 0,0 C 76 % 83 % 1007,6 hPa 0,0 l/m 9,0 km/h (2 Bft) SW 225 0 min 3,6 C 3,5 C 10,9 km/h (2 Bft)
24.12.2020 08:11 7,5 C 9,0 C 6,4 C 7,0 C 5,4 C 0,0 C 76 % 84 % 1007,8 hPa 0,0 l/m 8,7 km/h (2 Bft) N 0 0 min 3,5 C 3,4 C 10,8 km/h (2 Bft)
24.12.2020 08:26 7,3 C 9,0 C 6,1 C 6,8 C 5,9 C 0,0 C 77 % 84 % 1007,8 hPa 0,0 l/m 4,8 km/h (1 Bft) N-NW 337 0 min 3,5 C 5,2 C 9,8 km/h (2 Bft)
24.12.2020 08:40 7,1 C 8,9 C 5,9 C 6,6 C 5,6 C 0,0 C 78 % 84 % 1007,7 hPa 0,0 l/m 5,5 km/h (1 Bft) S-SO 157 0 min 3,5 C 4,6 C 4,7 km/h (1 Bft)
24.12.2020 08:45 6,9 C 8,9 C 5,9 C 6,5 C 5,8 C 0,0 C 78 % 85 % 1007,7 hPa 0,0 l/m 4,2 km/h (1 Bft) SO 135 0 min 3,3 C 5,8 C 4,2 km/h (1 Bft)
24.12.2020 08:50 6,8 C 8,9 C 5,8 C 6,6 C 6,2 C 0,0 C 79 % 85 % 1007,8 hPa 0,0 l/m 3,4 km/h (1 Bft) SO 135 0 min 3,4 C 6,2 C 3,5 km/h (1 Bft)
24.12.2020 08:55 6,8 C 8,9 C 5,9 C 6,6 C 6,2 C 0,0 C 79 % 84 % 1007,8 hPa 0,0 l/m 3,4 km/h (1 Bft) O-SO 112 0 min 3,4 C 6,2 C 4,5 km/h (1 Bft)
24.12.2020 09:00 6,8 C 8,9 C 5,9 C 6,6 C 6,2 C 0,0 C 79 % 84 % 1007,8 hPa 0,0 l/m 3,5 km/h (1 Bft) SW 225 0 min 3,4 C 6,2 C 6,8 km/h (2 Bft)
24.12.2020 09:05 6,8 C 8,9 C 6,1 C 6,6 C 6,3 C 0,0 C 79 % 84 % 1007,8 hPa 0,0 l/m 3,5 km/h (1 Bft) SO 135 0 min 3,4 C 6,3 C 6,9 km/h (2 Bft)
24.12.2020 09:10 6,9 C 8,9 C 6,3 C 6,7 C 6,4 C 0,0 C 79 % 83 % 1007,5 hPa 0,0 l/m 3,9 km/h (1 Bft) N-NW 337 0 min 3,5 C 6,4 C 10,6 km/h (2 Bft)
24.12.2020 09:15 7,1 C 8,9 C 6,4 C 6,9 C 6,5 C 0,0 C 79 % 83 % 1007,5 hPa 0,0 l/m 4,2 km/h (1 Bft) S-SO 157 0 min 3,7 C 6,5 C 6,1 km/h (2 Bft)
24.12.2020 09:20 7,1 C 8,8 C 6,6 C 7,0 C 6,7 C 0,0 C 79 % 83 % 1007,5 hPa 0,0 l/m 4,8 km/h (1 Bft) S-SW 202 0 min 3,7 C 6,1 C 9,2 km/h (2 Bft)
24.12.2020 09:25 7,2 C 8,8 C 6,8 C 7,1 C 6,9 C 0,0 C 78 % 82 % 1007,5 hPa 0,0 l/m 5,0 km/h (1 Bft) W 270 0 min 3,6 C 6,2 C 5,0 km/h (1 Bft)
24.12.2020 09:30 7,3 C 8,8 C 7,0 C 7,3 C 7,2 C 0,0 C 78 % 82 % 1007,4 hPa 0,0 l/m 5,3 km/h (1 Bft) W-NW 292 0 min 3,7 C 6,5 C 6,0 km/h (2 Bft)
24.12.2020 09:35 7,5 C 8,8 C 7,2 C 7,5 C 7,5 C 0,0 C 78 % 81 % 1007,4 hPa 0,0 l/m 5,8 km/h (2 Bft) S-SW 202 0 min 3,9 C 6,7 C 13,2 km/h (3 Bft)
24.12.2020 09:40 7,7 C 8,8 C 7,4 C 7,7 C 7,6 C 0,0 C 78 % 81 % 1007,4 hPa 0,0 l/m 6,1 km/h (2 Bft) S 180 0 min 4,1 C 6,7 C 11,6 km/h (2 Bft)
24.12.2020 09:45 7,8 C 8,8 C 7,5 C 7,8 C 7,8 C 0,0 C 77 % 80 % 1007,4 hPa 0,0 l/m 6,6 km/h (2 Bft) SW 225 0 min 4,0 C 6,8 C 6,3 km/h (2 Bft)
24.12.2020 09:50 7,9 C 8,8 C 7,5 C 7,8 C 7,7 C 0,0 C 77 % 80 % 1007,3 hPa 0,0 l/m 6,9 km/h (2 Bft) NW 315 0 min 4,1 C 6,6 C 5,5 km/h (1 Bft)
24.12.2020 09:55 7,9 C 8,8 C 7,5 C 7,8 C 7,7 C 0,0 C 76 % 80 % 1007,3 hPa 0,0 l/m 7,2 km/h (2 Bft) NO 45 0 min 3,9 C 6,5 C 13,5 km/h (3 Bft)
24.12.2020 10:00 8,0 C 8,8 C 7,4 C 7,9 C 7,6 C 0,0 C 76 % 79 % 1007,3 hPa 0,0 l/m 7,2 km/h (2 Bft) SO 135 0 min 4,0 C 6,4 C 13,4 km/h (3 Bft)
24.12.2020 10:05 8,0 C 8,8 C 7,3 C 7,7 C 7,2 C 0,0 C 75 % 79 % 1007,3 hPa 0,0 l/m 7,6 km/h (2 Bft) SO 135 0 min 3,8 C 5,8 C 10,3 km/h (2 Bft)
24.12.2020 10:11 8,0 C 8,7 C 7,3 C 7,8 C 7,4 C 0,0 C 75 % 79 % 1007,8 hPa 0,0 l/m 6,1 km/h (2 Bft) N 0 0 min 3,8 C 6,5 C 13,5 km/h (3 Bft)
24.12.2020 10:26 8,0 C 8,7 C 7,3 C 7,8 C 6,7 C 0,0 C 75 % 79 % 1007,8 hPa 0,0 l/m 8,5 km/h (2 Bft) S-SW 202 0 min 3,8 C 5,0 C 13,0 km/h (3 Bft)
24.12.2020 10:40 8,0 C 8,7 C 7,6 C 7,8 C 7,0 C 0,0 C 75 % 80 % 1007,7 hPa 0,0 l/m 10,6 km/h (2 Bft) O-SO 112 0 min 3,8 C 4,9 C 10,0 km/h (2 Bft)
24.12.2020 10:45 8,1 C 8,7 C 7,7 C 8,0 C 7,3 C 0,0 C 75 % 80 % 1007,7 hPa 0,0 l/m 10,0 km/h (2 Bft) SW 225 0 min 3,9 C 5,4 C 13,2 km/h (3 Bft)
24.12.2020 10:50 8,2 C 8,7 C 7,7 C 8,1 C 7,4 C 0,0 C 75 % 79 % 1007,6 hPa 0,0 l/m 9,0 km/h (2 Bft) S 180 0 min 4,0 C 5,7 C 12,4 km/h (3 Bft)
24.12.2020 10:55 8,1 C 8,7 C 7,8 C 8,1 C 7,8 C 0,0 C 75 % 79 % 1007,6 hPa 0,0 l/m 8,4 km/h (2 Bft) S-SO 157 0 min 3,9 C 6,3 C 12,7 km/h (3 Bft)
24.12.2020 11:00 8,2 C 8,7 C 7,9 C 8,2 C 7,7 C 0,0 C 75 % 79 % 1007,6 hPa 0,0 l/m 8,5 km/h (2 Bft) SW 225 0 min 4,0 C 6,2 C 12,1 km/h (2 Bft)
24.12.2020 11:05 8,3 C 8,7 C 8,0 C 8,3 C 8,1 C 0,0 C 76 % 79 % 1007,6 hPa 0,0 l/m 7,9 km/h (2 Bft) S 180 0 min 4,3 C 6,8 C 11,4 km/h (2 Bft)
24.12.2020 11:10 8,3 C 8,6 C 8,1 C 8,3 C 8,2 C 0,0 C 76 % 79 % 1007,7 hPa 0,0 l/m 7,6 km/h (2 Bft) SW 225 0 min 4,3 C 7,0 C 10,1 km/h (2 Bft)
24.12.2020 11:15 8,2 C 8,6 C 8,0 C 8,2 C 8,2 C 0,0 C 76 % 79 % 1007,7 hPa 0,0 l/m 7,4 km/h (2 Bft) S-SW 202 0 min 4,2 C 7,0 C 14,6 km/h (3 Bft)
24.12.2020 11:20 8,3 C 8,6 C 7,9 C 8,4 C 8,0 C 0,1 C 76 % 79 % 1007,7 hPa 0,0 l/m 7,7 km/h (2 Bft) SW 225 0 min 4,3 C 6,7 C 11,1 km/h (2 Bft)
24.12.2020 11:25 8,3 C 8,6 C 7,9 C 8,2 C 8,0 C 0,0 C 76 % 79 % 1007,7 hPa 0,0 l/m 8,4 km/h (2 Bft) S-SW 202 0 min 4,3 C 6,6 C 14,3 km/h (3 Bft)
24.12.2020 11:30 8,3 C 8,6 C 7,9 C 8,2 C 8,0 C 0,0 C 76 % 79 % 1007,6 hPa 0,0 l/m 7,7 km/h (2 Bft) S 180 0 min 4,3 C 6,7 C 9,0 km/h (2 Bft)
24.12.2020 11:35 8,3 C 8,6 C 7,9 C 8,3 C 7,8 C 0,0 C 76 % 79 % 1007,6 hPa 0,0 l/m 7,9 km/h (2 Bft) W 270 0 min 4,3 C 6,4 C 12,1 km/h (2 Bft)
24.12.2020 11:40 8,3 C 8,6 C 7,9 C 8,1 C 7,8 C 0,0 C 76 % 79 % 1007,6 hPa 0,0 l/m 7,6 km/h (2 Bft) SW 225 0 min 4,3 C 6,5 C 6,3 km/h (2 Bft)
24.12.2020 11:45 8,3 C 8,6 C 7,8 C 8,2 C 7,4 C 0,0 C 76 % 80 % 1007,6 hPa 0,0 l/m 9,3 km/h (2 Bft) S-SW 202 0 min 4,3 C 5,7 C 14,2 km/h (3 Bft)
24.12.2020 11:50 8,3 C 8,6 C 7,9 C 8,2 C 7,6 C 0,0 C 76 % 79 % 1007,4 hPa 0,0 l/m 9,2 km/h (2 Bft) SW 225 0 min 4,3 C 5,9 C 10,1 km/h (2 Bft)
24.12.2020 11:55 8,3 C 8,6 C 8,1 C 8,3 C 7,7 C 0,0 C 76 % 79 % 1007,4 hPa 0,0 l/m 11,1 km/h (2 Bft) S 180 0 min 4,3 C 5,7 C 12,4 km/h (3 Bft)
24.12.2020 12:00 8,4 C 8,6 C 8,2 C 8,4 C 7,8 C 0,0 C 76 % 79 % 1007,4 hPa 0,0 l/m 12,4 km/h (3 Bft) SW 225 0 min 4,4 C 5,6 C 16,7 km/h (3 Bft)
24.12.2020 12:05 8,4 C 8,6 C 8,2 C 8,4 C 7,7 C 0,0 C 76 % 79 % 1007,4 hPa 0,0 l/m 11,9 km/h (2 Bft) SW 225 0 min 4,4 C 5,5 C 11,1 km/h (2 Bft)
24.12.2020 12:11 8,4 C 8,6 C 8,2 C 8,2 C 7,7 C 0,0 C 76 % 79 % 1007,2 hPa 0,0 l/m 11,1 km/h (2 Bft) N 0 0 min 4,4 C 5,7 C 11,4 km/h (2 Bft)
24.12.2020 12:26 8,2 C 8,6 C 7,7 C 8,0 C 6,8 C 0,0 C 76 % 80 % 1007,2 hPa 0,0 l/m 11,4 km/h (2 Bft) SW 225 0 min 4,2 C 4,5 C 14,2 km/h (3 Bft)
24.12.2020 12:37 8,2 C 8,5 C 7,9 C 8,0 C 7,1 C 0,0 C 77 % 80 % 1007,0 hPa 0,0 l/m 11,1 km/h (2 Bft) S 180 0 min 4,4 C 5,0 C 13,4 km/h (3 Bft)
24.12.2020 12:38 8,2 C 8,5 C 7,9 C 7,8 C 7,1 C 0,0 C 77 % 80 % 1007,0 hPa 0,0 l/m 11,1 km/h (2 Bft) S 180 0 min 4,4 C 5,0 C 13,4 km/h (3 Bft)
24.12.2020 12:40 8,2 C 8,5 C 7,9 C 8,1 C 7,2 C 0,0 C 77 % 80 % 1007,0 hPa 0,0 l/m 11,3 km/h (2 Bft) SW 225 0 min 4,4 C 5,0 C 19,5 km/h (3 Bft)
24.12.2020 12:45 8,1 C 8,5 C 7,9 C 7,8 C 7,2 C 0,0 C 77 % 80 % 1007,0 hPa 0,0 l/m 11,4 km/h (2 Bft) SW 225 0 min 4,3 C 5,0 C 11,7 km/h (2 Bft)
24.12.2020 12:50 8,1 C 8,5 C 8,0 C 8,0 C 7,3 C 0,0 C 77 % 80 % 1006,6 hPa 0,0 l/m 10,8 km/h (2 Bft) SW 225 0 min 4,3 C 5,3 C 19,2 km/h (3 Bft)
24.12.2020 12:55 8,0 C 8,5 C 7,8 C 7,9 C 7,2 C 0,0 C 78 % 81 % 1006,6 hPa 0,0 l/m 9,5 km/h (2 Bft) S 180 0 min 4,4 C 5,4 C 13,5 km/h (3 Bft)
24.12.2020 13:00 8,0 C 8,5 C 7,8 C 7,8 C 6,7 C 0,0 C 78 % 81 % 1006,6 hPa 0,0 l/m 10,9 km/h (2 Bft) S 180 0 min 4,4 C 4,5 C 15,6 km/h (3 Bft)
24.12.2020 13:05 7,9 C 8,5 C 7,7 C 7,5 C 6,7 C 0,0 C 78 % 81 % 1006,6 hPa 0,0 l/m 10,9 km/h (2 Bft) S-SW 202 0 min 4,3 C 4,5 C 11,7 km/h (2 Bft)
24.12.2020 13:10 7,9 C 8,5 C 7,8 C 7,7 C 6,8 C 0,0 C 78 % 81 % 1006,9 hPa 0,0 l/m 10,0 km/h (2 Bft) S-SO 157 0 min 4,3 C 4,8 C 8,5 km/h (2 Bft)
24.12.2020 13:15 7,9 C 8,5 C 7,8 C 7,8 C 7,2 C 0,0 C 79 % 81 % 1006,9 hPa 0,0 l/m 9,0 km/h (2 Bft) O 90 0 min 4,5 C 5,5 C 14,3 km/h (3 Bft)
24.12.2020 13:20 7,9 C 8,5 C 7,8 C 7,8 C 7,6 C 0,0 C 79 % 82 % 1006,9 hPa 0,0 l/m 7,4 km/h (2 Bft) N-NO 22 0 min 4,5 C 6,3 C 4,0 km/h (1 Bft)
24.12.2020 13:25 7,9 C 8,5 C 7,9 C 7,8 C 7,7 C 0,0 C 79 % 81 % 1006,9 hPa 0,0 l/m 7,2 km/h (2 Bft) SW 225 0 min 4,5 C 6,5 C 13,4 km/h (3 Bft)
24.12.2020 13:30 7,9 C 8,5 C 7,9 C 7,9 C 7,9 C 0,0 C 79 % 81 % 1006,4 hPa 0,0 l/m 6,9 km/h (2 Bft) SW 225 0 min 4,5 C 6,8 C 10,3 km/h (2 Bft)
24.12.2020 13:35 7,9 C 8,5 C 8,0 C 8,5 C 8,3 C 0,6 C 79 % 80 % 1006,4 hPa 0,0 l/m 7,7 km/h (2 Bft) SO 135 0 min 4,5 C 7,1 C 12,7 km/h (3 Bft)
24.12.2020 13:40 8,1 C 8,5 C 8,0 C 8,9 C 8,6 C 0,8 C 79 % 81 % 1006,4 hPa 0,0 l/m 8,5 km/h (2 Bft) SW 225 0 min 4,7 C 7,3 C 13,7 km/h (3 Bft)
24.12.2020 13:45 8,0 C 8,5 C 8,1 C 8,8 C 8,3 C 0,8 C 78 % 80 % 1006,4 hPa 0,0 l/m 8,5 km/h (2 Bft) S-SW 202 0 min 4,4 C 6,9 C 12,4 km/h (3 Bft)
24.12.2020 13:50 8,0 C 8,5 C 8,0 C 8,6 C 8,2 C 0,6 C 78 % 80 % 1006,5 hPa 0,0 l/m 8,4 km/h (2 Bft) SW 225 0 min 4,4 C 6,8 C 11,7 km/h (2 Bft)
24.12.2020 13:55 8,1 C 8,5 C 7,9 C 8,4 C 7,8 C 0,3 C 78 % 80 % 1006,5 hPa 0,0 l/m 8,7 km/h (2 Bft) S 180 0 min 4,5 C 6,3 C 11,1 km/h (2 Bft)
24.12.2020 14:00 8,0 C 8,5 C 7,9 C 8,2 C 7,7 C 0,2 C 78 % 80 % 1006,5 hPa 0,0 l/m 8,5 km/h (2 Bft) S 180 0 min 4,4 C 6,2 C 11,4 km/h (2 Bft)
24.12.2020 14:05 7,9 C 8,5 C 7,9 C 8,0 C 7,4 C 0,1 C 78 % 80 % 1006,5 hPa 0,0 l/m 8,7 km/h (2 Bft) W-SW 247 0 min 4,3 C 5,8 C 16,3 km/h (3 Bft)
24.12.2020 14:11 8,0 C 8,5 C 7,9 C 7,9 C 7,3 C 0,0 C 78 % 80 % 1005,9 hPa 0,0 l/m 9,5 km/h (2 Bft) N 0 0 min 4,4 C 5,5 C 8,5 km/h (2 Bft)
24.12.2020 14:26 7,9 C 8,5 C 7,7 C 7,7 C 6,4 C 0,0 C 78 % 81 % 1005,9 hPa 0,0 l/m 11,3 km/h (2 Bft) W-SW 247 0 min 4,3 C 4,1 C 6,0 km/h (2 Bft)
24.12.2020 14:38 6,0 C 8,6 C 5,7 C 5,5 C 4,4 C 0,0 C 78 % 84 % 1006,9 hPa 0,0 l/m 6,1 km/h (2 Bft) NW 315 0 min 2,5 C 3,0 C 5,5 km/h (1 Bft)
24.12.2020 14:40 5,7 C 8,7 C 5,4 C 5,2 C 4,1 C 0,0 C 79 % 85 % 1006,9 hPa 0,0 l/m 5,3 km/h (1 Bft) NW 315 0 min 2,3 C 2,9 C 4,7 km/h (1 Bft)
24.12.2020 14:45 5,5 C 8,7 C 5,0 C 4,9 C 3,8 C 0,0 C 80 % 86 % 1006,9 hPa 0,0 l/m 4,3 km/h (1 Bft) SW 225 0 min 2,3 C 3,8 C 6,4 km/h (2 Bft)
24.12.2020 14:50 5,0 C 8,7 C 4,8 C 4,5 C 3,4 C 0,0 C 81 % 87 % 1007,6 hPa 0,0 l/m 4,3 km/h (1 Bft) S 180 0 min 2,0 C 3,4 C 8,9 km/h (2 Bft)
24.12.2020 14:55 4,8 C 8,7 C 4,5 C 4,1 C 2,8 C 0,0 C 82 % 88 % 1007,6 hPa 0,0 l/m 5,1 km/h (1 Bft) SW 225 0 min 2,0 C 1,5 C 12,7 km/h (3 Bft)
24.12.2020 15:00 4,2 C 8,7 C 4,1 C 3,5 C 2,2 C 0,0 C 83 % 88 % 1007,6 hPa 0,0 l/m 5,8 km/h (2 Bft) S-SO 157 0 min 1,6 C 0,6 C 5,0 km/h (1 Bft)
24.12.2020 15:05 4,0 C 8,7 C 3,8 C 3,2 C 1,6 C 0,0 C 83 % 89 % 1007,6 hPa 0,0 l/m 5,8 km/h (2 Bft) SW 225 0 min 1,4 C -0,1 C 4,5 km/h (1 Bft)
24.12.2020 15:10 4,0 C 8,7 C 3,6 C 3,4 C 2,2 C 0,0 C 83 % 89 % 1008,1 hPa 0,0 l/m 4,3 km/h (1 Bft) W-SW 247 0 min 1,4 C 2,2 C 4,2 km/h (1 Bft)
24.12.2020 15:15 3,5 C 8,7 C 3,5 C 3,1 C 2,3 C 0,0 C 84 % 90 % 1008,1 hPa 0,7 l/m 3,7 km/h (1 Bft) W-SW 247 0 min 1,1 C 2,3 C 8,5 km/h (2 Bft)
24.12.2020 15:20 3,4 C 8,7 C 3,4 C 3,0 C 2,1 C 0,0 C 85 % 90 % 1008,1 hPa 0,0 l/m 4,0 km/h (1 Bft) SW 225 0 min 1,1 C 2,1 C 5,3 km/h (1 Bft)
24.12.2020 15:25 3,3 C 8,7 C 3,2 C 2,7 C 1,6 C 0,0 C 85 % 90 % 1008,1 hPa 0,0 l/m 5,0 km/h (1 Bft) S 180 0 min 1,0 C 0,2 C 10,5 km/h (2 Bft)
24.12.2020 15:30 3,3 C 8,6 C 3,1 C 2,6 C 1,2 C 0,0 C 85 % 91 % 1008,9 hPa 0,0 l/m 5,8 km/h (2 Bft) W-SW 247 0 min 1,0 C -0,6 C 8,5 km/h (2 Bft)
24.12.2020 15:35 3,2 C 8,6 C 3,1 C 2,5 C 1,1 C 0,0 C 86 % 91 % 1008,9 hPa 0,0 l/m 6,0 km/h (2 Bft) W-SW 247 0 min 1,1 C -0,8 C 6,6 km/h (2 Bft)
24.12.2020 15:40 3,2 C 8,6 C 3,0 C 2,7 C 1,6 C 0,0 C 86 % 91 % 1008,9 hPa 0,0 l/m 4,8 km/h (1 Bft) SW 225 0 min 1,1 C 0,3 C 4,5 km/h (1 Bft)
24.12.2020 15:45 3,1 C 8,6 C 3,0 C 2,6 C 1,7 C 0,0 C 86 % 91 % 1008,9 hPa 0,0 l/m 4,3 km/h (1 Bft) S 180 0 min 1,0 C 1,7 C 9,2 km/h (2 Bft)
24.12.2020 15:50 3,1 C 8,6 C 2,9 C 2,6 C 1,7 C 0,0 C 87 % 91 % 1009,0 hPa 0,0 l/m 4,2 km/h (1 Bft) O-SO 112 0 min 1,2 C 1,7 C 4,2 km/h (1 Bft)
24.12.2020 15:55 3,1 C 8,6 C 2,9 C 2,5 C 1,4 C 0,0 C 87 % 91 % 1009,0 hPa 0,0 l/m 4,8 km/h (1 Bft) W-SW 247 0 min 1,2 C 0,1 C 11,6 km/h (2 Bft)
24.12.2020 16:00 2,9 C 8,5 C 2,9 C 2,3 C 1,2 C 0,0 C 87 % 91 % 1009,0 hPa 0,0 l/m 5,3 km/h (1 Bft) SW 225 0 min 1,0 C -0,4 C 5,3 km/h (1 Bft)
24.12.2020 16:05 2,9 C 8,5 C 2,9 C 2,4 C 1,4 C 0,0 C 87 % 92 % 1009,0 hPa 0,0 l/m 4,8 km/h (1 Bft) SW 225 0 min 1,0 C 0,1 C 7,1 km/h (2 Bft)
24.12.2020 16:11 2,9 C 8,5 C 2,9 C 2,6 C 2,1 C 0,0 C 87 % 92 % 1009,3 hPa 0,0 l/m 3,5 km/h (1 Bft) N 0 0 min 1,0 C 2,1 C 0,0 km/h (0 Bft)
24.12.2020 16:26 2,8 C 8,4 C 2,8 C 2,5 C 1,9 C 0,0 C 87 % 92 % 1009,3 hPa 0,0 l/m 3,5 km/h (1 Bft) NW 315 0 min 0,9 C 1,9 C 7,9 km/h (2 Bft)
24.12.2020 16:37 2,8 C 8,4 C 2,8 C 2,3 C 1,4 C 0,0 C 88 % 92 % 1009,9 hPa 0,0 l/m 4,5 km/h (1 Bft) SW 225 0 min 1,0 C 1,4 C 11,1 km/h (2 Bft)
24.12.2020 16:38 2,8 C 8,4 C 2,8 C 2,3 C 1,4 C 0,0 C 88 % 92 % 1009,9 hPa 0,0 l/m 4,5 km/h (1 Bft) SW 225 0 min 1,0 C 1,4 C 11,1 km/h (2 Bft)
24.12.2020 16:40 2,8 C 8,4 C 2,8 C 2,3 C 1,4 C 0,0 C 88 % 92 % 1009,9 hPa 0,0 l/m 4,7 km/h (1 Bft) SW 225 0 min 1,0 C 0,1 C 9,3 km/h (2 Bft)
24.12.2020 16:45 2,8 C 8,4 C 2,8 C 2,4 C 1,6 C 0,0 C 88 % 92 % 1009,9 hPa 0,0 l/m 4,3 km/h (1 Bft) W-SW 247 0 min 1,0 C 1,6 C 4,2 km/h (1 Bft)
24.12.2020 16:50 2,8 C 8,4 C 2,8 C 2,6 C 2,1 C 0,0 C 88 % 92 % 1010,0 hPa 0,0 l/m 3,5 km/h (1 Bft) S 180 0 min 1,0 C 2,1 C 6,9 km/h (2 Bft)
24.12.2020 16:55 2,8 C 8,3 C 2,8 C 2,6 C 2,3 C 0,0 C 88 % 92 % 1010,0 hPa 0,0 l/m 3,1 km/h (1 Bft) S-SW 202 0 min 1,0 C 2,3 C 10,8 km/h (2 Bft)
24.12.2020 17:00 2,8 C 8,3 C 2,8 C 2,6 C 2,3 C 0,0 C 88 % 92 % 1010,0 hPa 0,0 l/m 3,2 km/h (1 Bft) W-NW 292 0 min 1,0 C 2,3 C 2,1 km/h (1 Bft)
24.12.2020 17:05 2,9 C 8,3 C 2,9 C 2,7 C 2,2 C 0,0 C 88 % 92 % 1010,0 hPa 0,0 l/m 3,4 km/h (1 Bft) NW 315 0 min 1,1 C 2,2 C 3,4 km/h (1 Bft)
24.12.2020 17:10 2,9 C 8,3 C 2,9 C 2,7 C 2,3 C 0,0 C 87 % 92 % 1010,4 hPa 0,0 l/m 3,1 km/h (1 Bft) SW 225 0 min 1,0 C 2,3 C 3,4 km/h (1 Bft)
24.12.2020 17:15 3,0 C 8,3 C 2,9 C 2,9 C 2,6 C 0,0 C 87 % 92 % 1010,4 hPa 0,0 l/m 2,9 km/h (1 Bft) SW 225 0 min 1,1 C 2,6 C 8,4 km/h (2 Bft)
24.12.2020 17:20 3,0 C 8,3 C 2,9 C 2,9 C 2,7 C 0,0 C 87 % 92 % 1010,4 hPa 0,0 l/m 2,7 km/h (1 Bft) SW 225 0 min 1,1 C 2,7 C 6,9 km/h (2 Bft)
24.12.2020 17:25 3,1 C 8,3 C 2,9 C 2,9 C 2,4 C 0,0 C 87 % 92 % 1010,4 hPa 0,0 l/m 3,2 km/h (1 Bft) W-SW 247 0 min 1,2 C 2,4 C 7,7 km/h (2 Bft)
24.12.2020 17:30 3,1 C 8,1 C 2,9 C 2,8 C 2,1 C 0,0 C 87 % 92 % 1010,7 hPa 0,0 l/m 3,7 km/h (1 Bft) SW 225 0 min 1,2 C 2,1 C 4,2 km/h (1 Bft)
24.12.2020 17:35 3,0 C 8,1 C 2,9 C 2,7 C 2,1 C 0,0 C 87 % 92 % 1010,7 hPa 0,0 l/m 3,7 km/h (1 Bft) SW 225 0 min 1,1 C 2,1 C 4,0 km/h (1 Bft)
24.12.2020 17:40 3,1 C 8,3 C 2,9 C 2,9 C 2,5 C 0,0 C 87 % 92 % 1010,7 hPa 0,0 l/m 3,1 km/h (1 Bft) O 90 0 min 1,2 C 2,5 C 3,7 km/h (1 Bft)
24.12.2020 17:45 3,1 C 8,3 C 2,9 C 2,9 C 2,4 C 0,0 C 87 % 92 % 1010,7 hPa 0,0 l/m 3,2 km/h (1 Bft) W-SW 247 0 min 1,2 C 2,4 C 3,9 km/h (1 Bft)
24.12.2020 17:50 3,1 C 8,3 C 2,9 C 2,8 C 2,1 C 0,0 C 87 % 92 % 1011,1 hPa 0,0 l/m 3,7 km/h (1 Bft) S-SW 202 0 min 1,2 C 2,1 C 9,3 km/h (2 Bft)
24.12.2020 17:55 3,1 C 8,1 C 2,9 C 2,7 C 1,9 C 0,0 C 87 % 92 % 1011,1 hPa 0,0 l/m 4,2 km/h (1 Bft) N-NW 337 0 min 1,2 C 1,9 C 6,4 km/h (2 Bft)
24.12.2020 18:00 3,0 C 8,1 C 2,9 C 2,6 C 1,8 C 0,0 C 87 % 92 % 1011,1 hPa 0,0 l/m 4,3 km/h (1 Bft) W 270 0 min 1,1 C 1,8 C 5,8 km/h (2 Bft)
24.12.2020 18:05 3,1 C 8,1 C 2,9 C 2,7 C 1,8 C 0,0 C 87 % 92 % 1011,1 hPa 0,0 l/m 4,3 km/h (1 Bft) W-SW 247 0 min 1,2 C 1,8 C 4,0 km/h (1 Bft)
24.12.2020 18:11 3,1 C 8,1 C 2,9 C 2,7 C 1,9 C 0,0 C 87 % 92 % 1011,1 hPa 0,0 l/m 4,2 km/h (1 Bft) N 0 0 min 1,2 C 1,9 C 5,0 km/h (1 Bft)
24.12.2020 18:26 3,1 C 8,1 C 3,0 C 2,9 C 2,6 C 0,0 C 88 % 93 % 1011,1 hPa 0,0 l/m 3,2 km/h (1 Bft) S-SW 202 0 min 1,3 C 2,6 C 5,3 km/h (1 Bft)
24.12.2020 18:38 3,1 C 8,0 C 2,9 C 2,7 C 1,8 C 0,0 C 87 % 93 % 1011,4 hPa 0,0 l/m 4,3 km/h (1 Bft) SW 225 0 min 1,2 C 1,8 C 4,8 km/h (1 Bft)
24.12.2020 18:40 3,0 C 8,0 C 2,9 C 2,7 C 2,0 C 0,0 C 88 % 93 % 1011,4 hPa 0,0 l/m 4,0 km/h (1 Bft) S 180 0 min 1,2 C 2,0 C 2,3 km/h (1 Bft)
24.12.2020 18:45 3,0 C 8,0 C 2,9 C 2,8 C 2,4 C 0,0 C 87 % 93 % 1011,4 hPa 0,0 l/m 3,4 km/h (1 Bft) SW 225 0 min 1,1 C 2,4 C 4,2 km/h (1 Bft)
24.12.2020 18:50 3,1 C 8,0 C 2,9 C 3,0 C 2,9 C 0,0 C 87 % 93 % 1011,7 hPa 0,0 l/m 2,7 km/h (1 Bft) W 270 0 min 1,2 C 2,9 C 0,0 km/h (0 Bft)
24.12.2020 18:55 3,1 C 8,0 C 2,9 C 3,1 C 3,0 C 0,0 C 87 % 93 % 1011,7 hPa 0,0 l/m 2,1 km/h (1 Bft) SW 225 0 min 1,2 C 3,0 C 2,4 km/h (1 Bft)
24.12.2020 19:00 3,1 C 8,0 C 3,0 C 3,1 C 3,1 C 0,0 C 87 % 93 % 1011,7 hPa 0,0 l/m 1,8 km/h (1 Bft) SW 225 0 min 1,2 C 3,1 C 2,9 km/h (1 Bft)
24.12.2020 19:05 3,1 C 8,0 C 3,0 C 3,1 C 3,1 C 0,0 C 87 % 93 % 1011,7 hPa 0,0 l/m 2,6 km/h (1 Bft) SW 225 0 min 1,2 C 3,1 C 2,4 km/h (1 Bft)
24.12.2020 19:10 3,1 C 7,9 C 3,0 C 3,2 C 3,2 C 0,1 C 87 % 93 % 1011,4 hPa 0,0 l/m 2,7 km/h (1 Bft) W-SW 247 0 min 1,2 C 3,2 C 3,2 km/h (1 Bft)
24.12.2020 19:15 3,1 C 7,9 C 3,0 C 3,2 C 3,2 C 0,1 C 87 % 93 % 1011,4 hPa 0,0 l/m 2,7 km/h (1 Bft) SW 225 0 min 1,2 C 3,2 C 5,0 km/h (1 Bft)
24.12.2020 19:20 3,1 C 7,9 C 3,0 C 3,1 C 3,0 C 0,0 C 88 % 93 % 1011,4 hPa 0,0 l/m 3,1 km/h (1 Bft) W-SW 247 0 min 1,3 C 3,0 C 9,3 km/h (2 Bft)
24.12.2020 19:25 3,1 C 7,9 C 3,0 C 2,9 C 2,5 C 0,0 C 87 % 93 % 1011,4 hPa 0,0 l/m 4,2 km/h (1 Bft) SW 225 0 min 1,2 C 2,5 C 8,0 km/h (2 Bft)
24.12.2020 19:30 3,1 C 7,9 C 3,0 C 2,9 C 2,6 C 0,0 C 87 % 93 % 1012,3 hPa 0,0 l/m 4,0 km/h (1 Bft) W-SW 247 0 min 1,2 C 2,6 C 4,3 km/h (1 Bft)
24.12.2020 19:35 3,1 C 7,9 C 3,0 C 3,3 C 3,3 C 0,2 C 88 % 93 % 1012,3 hPa 0,0 l/m 2,7 km/h (1 Bft) SW 225 0 min 1,3 C 3,3 C 2,4 km/h (1 Bft)
24.12.2020 19:40 3,1 C 7,9 C 3,0 C 3,3 C 3,3 C 0,2 C 87 % 93 % 1012,3 hPa 0,0 l/m 1,8 km/h (1 Bft) S-SW 202 0 min 1,2 C 3,3 C 3,2 km/h (1 Bft)
24.12.2020 19:45 3,1 C 7,9 C 3,0 C 3,3 C 3,3 C 0,2 C 88 % 93 % 1012,3 hPa 0,0 l/m 1,9 km/h (1 Bft) N-NW 337 0 min 1,3 C 3,3 C 3,1 km/h (1 Bft)
24.12.2020 19:50 3,1 C 7,9 C 3,0 C 3,3 C 3,3 C 0,2 C 87 % 93 % 1011,9 hPa 0,0 l/m 2,4 km/h (1 Bft) W-SW 247 0 min 1,2 C 3,3 C 2,1 km/h (1 Bft)
24.12.2020 19:55 3,1 C 7,9 C 3,0 C 3,3 C 3,3 C 0,2 C 88 % 93 % 1011,9 hPa 0,0 l/m 2,6 km/h (1 Bft) W 270 0 min 1,3 C 3,3 C 0,0 km/h (0 Bft)
24.12.2020 20:00 3,1 C 7,9 C 3,0 C 3,3 C 3,3 C 0,2 C 87 % 93 % 1011,9 hPa 0,0 l/m 2,1 km/h (1 Bft) S-SW 202 0 min 1,2 C 3,3 C 3,4 km/h (1 Bft)
24.12.2020 20:05 3,1 C 7,9 C 3,0 C 3,3 C 3,3 C 0,2 C 88 % 93 % 1011,9 hPa 0,0 l/m 2,3 km/h (1 Bft) SW 225 0 min 1,3 C 3,3 C 4,0 km/h (1 Bft)
24.12.2020 20:11 3,1 C 7,9 C 3,0 C 3,3 C 3,3 C 0,2 C 88 % 93 % 1012,0 hPa 0,0 l/m 2,4 km/h (1 Bft) N 0 0 min 1,3 C 3,3 C 2,4 km/h (1 Bft)
24.12.2020 20:26 3,1 C 7,8 C 3,1 C 3,1 C 3,1 C 0,0 C 88 % 93 % 1012,0 hPa 0,0 l/m 3,4 km/h (1 Bft) SW 225 0 min 1,3 C 3,1 C 6,4 km/h (2 Bft)
24.12.2020 20:38 3,1 C 7,8 C 3,1 C 3,2 C 3,2 C 0,1 C 88 % 93 % 1012,4 hPa 0,0 l/m 3,1 km/h (1 Bft) W 270 0 min 1,3 C 3,2 C 3,4 km/h (1 Bft)
24.12.2020 20:40 3,1 C 7,8 C 3,1 C 3,4 C 3,4 C 0,3 C 88 % 93 % 1012,4 hPa 0,0 l/m 2,3 km/h (1 Bft) NW 315 0 min 1,3 C 3,4 C 0,0 km/h (0 Bft)
24.12.2020 20:45 3,1 C 7,8 C 3,1 C 3,4 C 3,4 C 0,3 C 88 % 93 % 1012,4 hPa 0,0 l/m 1,9 km/h (1 Bft) S-SW 202 0 min 1,3 C 3,4 C 0,0 km/h (0 Bft)
24.12.2020 20:50 3,1 C 7,8 C 3,1 C 3,4 C 3,4 C 0,3 C 88 % 93 % 1012,2 hPa 0,0 l/m 1,8 km/h (1 Bft) W-SW 247 0 min 1,3 C 3,4 C 4,7 km/h (1 Bft)
24.12.2020 20:55 3,1 C 7,8 C 3,1 C 3,4 C 3,4 C 0,3 C 88 % 93 % 1012,2 hPa 0,0 l/m 1,9 km/h (1 Bft) S 180 0 min 1,3 C 3,4 C 2,3 km/h (1 Bft)
24.12.2020 21:00 3,1 C 7,8 C 3,1 C 3,4 C 3,4 C 0,3 C 88 % 93 % 1012,2 hPa 0,0 l/m 2,3 km/h (1 Bft) SW 225 0 min 1,3 C 3,4 C 2,4 km/h (1 Bft)
24.12.2020 21:05 3,1 C 7,8 C 3,1 C 3,4 C 3,4 C 0,3 C 88 % 93 % 1012,2 hPa 0,0 l/m 1,8 km/h (1 Bft) W-SW 247 0 min 1,3 C 3,4 C 1,6 km/h (1 Bft)
24.12.2020 21:10 3,1 C 7,8 C 3,1 C 3,5 C 3,5 C 0,4 C 88 % 93 % 1012,4 hPa 0,0 l/m 1,9 km/h (1 Bft) SW 225 0 min 1,3 C 3,5 C 3,7 km/h (1 Bft)
24.12.2020 21:15 3,1 C 7,8 C 3,1 C 3,4 C 3,4 C 0,3 C 88 % 93 % 1012,4 hPa 0,0 l/m 2,9 km/h (1 Bft) W 270 0 min 1,3 C 3,4 C 9,5 km/h (2 Bft)
24.12.2020 21:20 3,1 C 7,8 C 3,1 C 3,3 C 3,3 C 0,2 C 88 % 93 % 1012,4 hPa 0,0 l/m 3,1 km/h (1 Bft) W-SW 247 0 min 1,3 C 3,3 C 0,0 km/h (0 Bft)
24.12.2020 21:25 3,1 C 7,8 C 3,1 C 3,5 C 3,5 C 0,4 C 88 % 93 % 1012,4 hPa 0,0 l/m 2,6 km/h (1 Bft) SW 225 0 min 1,3 C 3,5 C 3,2 km/h (1 Bft)
24.12.2020 21:30 3,1 C 7,8 C 3,1 C 3,5 C 3,5 C 0,4 C 88 % 93 % 1012,9 hPa 0,0 l/m 1,9 km/h (1 Bft) S-SW 202 0 min 1,3 C 3,5 C 1,9 km/h (1 Bft)
24.12.2020 21:35 3,1 C 7,8 C 3,1 C 3,5 C 3,5 C 0,4 C 88 % 93 % 1012,9 hPa 0,0 l/m 1,9 km/h (1 Bft) W 270 0 min 1,3 C 3,5 C 3,7 km/h (1 Bft)
24.12.2020 21:40 3,1 C 7,8 C 3,1 C 3,5 C 3,5 C 0,4 C 88 % 93 % 1012,9 hPa 0,0 l/m 1,9 km/h (1 Bft) NW 315 0 min 1,3 C 3,5 C 0,0 km/h (0 Bft)
24.12.2020 21:45 3,1 C 7,8 C 3,1 C 3,4 C 3,4 C 0,3 C 88 % 93 % 1012,9 hPa 0,0 l/m 1,8 km/h (1 Bft) SW 225 0 min 1,3 C 3,4 C 3,1 km/h (1 Bft)
24.12.2020 21:50 3,1 C 7,8 C 3,1 C 3,4 C 3,4 C 0,3 C 88 % 93 % 1012,8 hPa 0,0 l/m 1,8 km/h (1 Bft) SW 225 0 min 1,3 C 3,4 C 3,2 km/h (1 Bft)
24.12.2020 21:55 3,1 C 7,8 C 3,1 C 3,4 C 3,4 C 0,3 C 88 % 93 % 1012,8 hPa 0,0 l/m 1,9 km/h (1 Bft) SW 225 0 min 1,3 C 3,4 C 3,1 km/h (1 Bft)
24.12.2020 22:00 3,1 C 7,8 C 3,1 C 3,4 C 3,4 C 0,3 C 88 % 93 % 1012,8 hPa 0,0 l/m 2,1 km/h (1 Bft) W-NW 292 0 min 1,3 C 3,4 C 3,4 km/h (1 Bft)
24.12.2020 22:05 3,1 C 7,8 C 3,1 C 3,4 C 3,4 C 0,3 C 88 % 93 % 1012,8 hPa 0,0 l/m 1,3 km/h (1 Bft) N-NW 337 0 min 1,3 C 3,4 C 0,0 km/h (0 Bft)
24.12.2020 22:11 3,1 C 7,8 C 3,1 C 3,5 C 3,5 C 0,4 C 88 % 93 % 1013,0 hPa 0,0 l/m 0,3 km/h (0 Bft) N 0 0 min 1,3 C 3,5 C 0,0 km/h (0 Bft)
24.12.2020 22:26 3,1 C 7,7 C 3,1 C 3,5 C 3,5 C 0,4 C 88 % 93 % 1013,0 hPa 0,0 l/m 1,6 km/h (1 Bft) SW 225 0 min 1,3 C 3,5 C 3,9 km/h (1 Bft)
24.12.2020 22:38 3,1 C 7,7 C 3,1 C 3,6 C 3,6 C 0,5 C 88 % 93 % 1013,2 hPa 0,0 l/m 1,6 km/h (1 Bft) SW 225 0 min 1,3 C 3,6 C 2,1 km/h (1 Bft)
24.12.2020 22:40 3,0 C 7,7 C 3,1 C 3,6 C 3,6 C 0,6 C 88 % 93 % 1013,2 hPa 0,0 l/m 1,8 km/h (1 Bft) S-SW 202 0 min 1,2 C 3,6 C 2,1 km/h (1 Bft)
24.12.2020 22:45 3,0 C 7,7 C 3,1 C 3,5 C 3,5 C 0,5 C 88 % 93 % 1013,2 hPa 0,0 l/m 1,9 km/h (1 Bft) SW 225 0 min 1,2 C 3,5 C 2,3 km/h (1 Bft)
24.12.2020 22:50 3,0 C 7,7 C 3,1 C 3,5 C 3,5 C 0,5 C 88 % 93 % 1012,9 hPa 0,0 l/m 1,3 km/h (1 Bft) W-SW 247 0 min 1,2 C 3,5 C 1,9 km/h (1 Bft)
24.12.2020 22:55 3,1 C 7,7 C 3,1 C 3,5 C 3,5 C 0,4 C 88 % 93 % 1012,9 hPa 0,0 l/m 1,4 km/h (1 Bft) W-SW 247 0 min 1,3 C 3,5 C 2,9 km/h (1 Bft)
24.12.2020 23:00 3,0 C 7,7 C 3,1 C 3,5 C 3,5 C 0,5 C 88 % 93 % 1012,9 hPa 0,0 l/m 1,8 km/h (1 Bft) W-SW 247 0 min 1,2 C 3,5 C 4,5 km/h (1 Bft)
24.12.2020 23:05 3,0 C 7,7 C 3,1 C 3,5 C 3,5 C 0,5 C 88 % 93 % 1012,9 hPa 0,0 l/m 1,8 km/h (1 Bft) S-SW 202 0 min 1,2 C 3,5 C 5,1 km/h (1 Bft)
24.12.2020 23:10 3,1 C 7,7 C 3,1 C 3,5 C 3,5 C 0,4 C 88 % 93 % 1013,2 hPa 0,0 l/m 2,1 km/h (1 Bft) SW 225 0 min 1,3 C 3,5 C 2,7 km/h (1 Bft)
24.12.2020 23:15 3,0 C 7,7 C 3,1 C 3,5 C 3,5 C 0,5 C 88 % 93 % 1013,2 hPa 0,0 l/m 1,4 km/h (1 Bft) W 270 0 min 1,2 C 3,5 C 0,0 km/h (0 Bft)
24.12.2020 23:20 3,0 C 7,7 C 3,1 C 3,5 C 3,5 C 0,5 C 88 % 93 % 1013,2 hPa 0,0 l/m 0,8 km/h (0 Bft) NW 315 0 min 1,2 C 3,5 C 0,0 km/h (0 Bft)
24.12.2020 23:25 3,1 C 7,7 C 3,1 C 3,5 C 3,5 C 0,4 C 88 % 93 % 1013,2 hPa 0,0 l/m 0,3 km/h (0 Bft) W 270 0 min 1,3 C 3,5 C 0,0 km/h (0 Bft)
24.12.2020 23:30 3,1 C 7,6 C 3,1 C 3,5 C 3,5 C 0,4 C 88 % 93 % 1013,2 hPa 0,0 l/m 0,6 km/h (0 Bft) SW 225 0 min 1,3 C 3,5 C 2,7 km/h (1 Bft)
24.12.2020 23:35 3,1 C 7,6 C 3,1 C 3,5 C 3,5 C 0,4 C 88 % 93 % 1013,2 hPa 0,0 l/m 1,6 km/h (1 Bft) SO 135 0 min 1,3 C 3,5 C 2,4 km/h (1 Bft)
24.12.2020 23:40 3,1 C 7,6 C 3,1 C 3,5 C 3,5 C 0,4 C 88 % 93 % 1013,2 hPa 0,0 l/m 1,6 km/h (1 Bft) S 180 0 min 1,3 C 3,5 C 2,3 km/h (1 Bft)
24.12.2020 23:45 3,1 C 7,6 C 3,1 C 3,5 C 3,5 C 0,4 C 88 % 93 % 1013,2 hPa 0,0 l/m 1,0 km/h (0 Bft) S-SW 202 0 min 1,3 C 3,5 C 3,9 km/h (1 Bft)
24.12.2020 23:50 3,1 C 7,6 C 3,1 C 3,5 C 3,5 C 0,4 C 88 % 93 % 1013,4 hPa 0,0 l/m 1,1 km/h (1 Bft) NW 315 0 min 1,3 C 3,5 C 2,9 km/h (1 Bft)
24.12.2020 23:55 3,1 C 7,6 C 3,1 C 3,5 C 3,5 C 0,4 C 88 % 93 % 1013,4 hPa 0,0 l/m 1,6 km/h (1 Bft) W-SW 247 0 min 1,3 C 3,5 C 6,1 km/h (2 Bft)
_ Min-Zeit 16:26 23:30 16:26 16:00 15:35 00:29 06:45 10:00 14:11 - 22:11 - - - 16:26 15:35 16:11
Minimum _ 2,8 C 7,6 C 2,8 C 2,3 C 1,1 C 0,0 C 71 % 79 % 1005,9 hPa - 0,3 km/h (0 Bft) - - - 0,9 C -0,8 C 0,0 km/h (0 Bft)
_ Max-Zeit 00:50 00:00 00:00 01:15 01:15 13:45 00:00 00:00 23:50 15:15 06:50 - - 00:00 00:50 01:15 06:45
Maximum _ 11,3 C 9,9 C 10,1 C 11,3 C 11,3 C 0,8 C 88 % 93 % 1013,4 hPa 0,7 l/m 17,9 km/h
S-SW (3 Bft)
- - 0 min 9,2 C 11,3 C 32,3 km/h
W-SW (5 Bft)
Durchschnitt _ 6,9 C 8,7 C 6,4 C 6,8 C 6,3 C 0,1 C 83 % 88 % 1008,9 hPa #0,7 l/m 5,7 km/h (1 Bft) SW - #0 min. 4,1 C 5,6 C 7,9 km/h (2 Bft)
2020 www.wetterstation-wechselburg.de